Weather History for Marshalltown, IA

Change the Weather History Date:

Thursday, February 6, 2014

  Actual Average Record
Temperature  
Mean Temperature -4 °F 21 °F  
Max Temperature 6 °F 30 °F 50 °F (2009)
Min Temperature -15 °F 12 °F -15 °F (2014)
Degree Days  
Heating Degree Days 69 44  
Month to date heating degree days 356 268  
Since 1 July heating degree days 4976 4501  
Cooling Degree Days 0 0  
Month to date cooling degree days 0 0  
Year to date cooling degree days 0 0  
Moisture  
Dew Point -9 °F    
Average Humidity 75    
Maximum Humidity 86    
Minimum Humidity 63    
Precipitation  
Precipitation 0.00 in 0.03 in 0.24 in (2005)
Month to date precipitation 0.01 0.13  
Sea Level Pressure  
Sea Level Pressure 30.52 in    
Wind  
Wind Speed 11 mph (West)    
Max Wind Speed 20 mph    
Max Gust Speed 23 mph    
Visibility 10 miles    
Events      
T = Trace of Precipitation, MM = Missing Value Source: NWS Daily Summary

Daily Weather History Graph

Daily Weather History Graph

Search for Another Location

Airport:

Trip Planner

Search our weather history database for the weather conditions in past years. The results will help you decide how hot, cold, wet, or windy it might be!

Date:

Astronomy

Feb. 06, 2014 Rise Set
Actual Time 7:19 AM CST 5:32 PM CST
Civil Twilight 6:49 AM CST 6:02 PM CST
Nautical Twilight 6:16 AM CST 6:35 PM CST
Astronomical Twilight 5:44 AM CST 7:08 PM CST
Moon 11:04 AM CST (2/6) 12:35 AM CST (2/6)
Length of Visible Light 11h 12m
Length of Day
10h 13m
Waxing Crescent, 49% of the Moon is Illuminated
Feb 6
Waxing Crescent
Feb 6
First Quarter
Feb 14
Full
Feb 22
Last Quarter
Mar 1
New

Hourly Weather History & Observations

Time (CST) Temp. Windchill Dew Point Humidity Pressure Visibility Wind Dir Wind Speed Gust Speed Precip Events Conditions
12:53 AM -8.0 °F -26.1 °F -13.0 °F 79% 30.60 in 10.0 mi WNW 10.4 mph - N/A   Clear
1:53 AM -8.0 °F -26.1 °F -13.0 °F 79% 30.59 in 10.0 mi WNW 10.4 mph - N/A   Clear
2:53 AM -9.9 °F -24.9 °F -14.1 °F 82% 30.59 in 10.0 mi WNW 6.9 mph - N/A   Clear
3:53 AM -11.0 °F -27.6 °F -15.0 °F 83% 30.58 in 10.0 mi WNW 8.1 mph - N/A   Clear
4:53 AM -11.0 °F -28.8 °F -16.1 °F 78% 30.58 in 10.0 mi West 9.2 mph - N/A   Clear
5:53 AM -15.0 °F -27.4 °F -18.0 °F 86% 30.58 in 10.0 mi West 4.6 mph - N/A   Clear
6:53 AM -14.1 °F -29.9 °F -18.0 °F 82% 30.58 in 10.0 mi West 6.9 mph - N/A   Clear
7:53 AM -11.0 °F -29.9 °F -16.1 °F 78% 30.59 in 10.0 mi West 10.4 mph - N/A   Clear
8:53 AM -8.0 °F -23.9 °F -13.0 °F 79% 30.60 in 10.0 mi West 8.1 mph - N/A   Clear
9:53 AM -5.1 °F -25.1 °F -11.9 °F 72% 30.61 in 10.0 mi West 13.8 mph - N/A   Clear
10:53 AM -2.0 °F -21.2 °F -9.9 °F 69% 30.61 in 10.0 mi West 13.8 mph - N/A   Clear
11:53 AM 1.0 °F -18.0 °F -8.0 °F 66% 30.58 in 10.0 mi WNW 15.0 mph - N/A   Clear
12:53 PM 3.0 °F -16.1 °F -5.1 °F 69% 30.53 in 10.0 mi WNW 16.1 mph - N/A   Clear
1:53 PM 3.9 °F -14.3 °F -4.0 °F 70% 30.51 in 10.0 mi West 15.0 mph - N/A   Clear
2:53 PM 6.1 °F -10.2 °F -2.9 °F 67% 30.49 in 10.0 mi West 12.7 mph - N/A   Clear
3:53 PM 6.1 °F -10.2 °F -4.0 °F 63% 30.49 in 10.0 mi West 12.7 mph - N/A   Partly Cloudy
4:53 PM 6.1 °F -10.2 °F -2.0 °F 69% 30.47 in 10.0 mi West 12.7 mph - N/A   Mostly Cloudy
5:53 PM 3.9 °F -10.4 °F -2.9 °F 73% 30.47 in 10.0 mi WSW 9.2 mph - N/A   Overcast
6:53 PM 1.9 °F -11.8 °F -5.1 °F 72% 30.46 in 10.0 mi WSW 8.1 mph - N/A   Scattered Clouds
7:53 PM -0.9 °F -16.4 °F -7.1 °F 75% 30.46 in 10.0 mi WSW 9.2 mph - N/A   Mostly Cloudy
8:53 PM -2.0 °F -18.7 °F -7.1 °F 79% 30.46 in 10.0 mi WSW 10.4 mph - N/A   Clear
9:53 PM -2.9 °F -18.8 °F -7.1 °F 82% 30.46 in 10.0 mi SW 9.2 mph - N/A   Clear
10:16 PM -2.9 °F -17.7 °F -7.1 °F 82% 30.38 in 10.0 mi WSW 8.1 mph - N/A   Mostly Cloudy
10:50 PM -2.2 °F -18.0 °F -5.8 °F 85% 30.37 in 10.0 mi SW 9.2 mph - N/A   Scattered Clouds
10:53 PM -2.9 °F -18.8 °F -6.0 °F 87% 30.45 in 10.0 mi WSW 9.2 mph - N/A   Partly Cloudy
11:53 PM -4.0 °F -21.2 °F -8.0 °F 83% 30.45 in 10.0 mi WSW 10.4 mph - N/A   Clear